Date String (YYYY-MM-DD hh:mm:ss) UTC,Instrument flags,absolute air pressure of the measurement (hPa),sample flow rate (lpm),inlet stack bypass flow (lpm),air temperature of the measurement (°C),ambient temperature measured by the external sensor (°C),aerosol sample conditioner tube jacket temperature (°C),OPC LED temperature (°C),internal box temperature (°C),relative humidity of the measurement (%),span deviation,mass concentration of particles derived from Lorenz-Mie calculation of OPC scattering (μg/m³),mass concentration of particles derived from Lorenz-Mie calculation of OPC scattering (μg/m³),mass concentration of particles derived from Lorenz-Mie calculation of OPC scattering (μg/m³)
DateTimeUTC,F1_M11,P_M11,Q1_M11,Q2_M11,T1_M11,T2_M11,T3_M11,T4_M11,T5_M11,U1_M11,ZSPAN_M11,X2_M11,X0_M11,X1_M11
2024-03-14 06:00:00,SystemResetWarning,0824.1,5.00,000.00,018.9,017.7,000.0,027.7,020.5,26.8,0000.0,0000.45,0001.75,0000.20
2024-03-14 06:01:00,SystemResetWarning,0824.1,5.00,000.00,018.8,017.6,000.0,027.6,020.5,26.9,0000.0,0000.42,0001.68,0000.19
2024-03-14 06:02:00,SystemResetWarning,0824.2,5.00,000.00,018.8,017.6,000.0,027.6,020.4,26.9,0000.0,0000.37,0001.59,0000.18
2024-03-14 06:03:00,SystemResetWarning,0824.2,5.00,000.00,018.8,017.6,000.0,027.6,020.4,27.0,0000.0,0000.35,0001.53,0000.18
2024-03-14 06:04:00,SystemResetWarning,0824.3,5.01,000.00,018.8,017.6,000.0,027.6,020.4,27.0,0000.0,0000.35,0001.52,0000.17
2024-03-14 06:05:00,SystemResetWarning,0824.3,5.00,000.00,018.7,017.6,000.0,027.6,020.4,27.1,0000.0,0000.32,0000.80,0000.16
2024-03-14 06:06:00,SystemResetWarning,0824.3,4.99,000.00,018.7,017.6,000.0,027.5,020.4,27.1,0000.0,0000.29,0000.65,0000.15
2024-03-14 06:07:00,SystemResetWarning,0824.3,4.99,000.00,018.7,017.5,000.0,027.5,020.4,27.1,0000.0,0000.25,0000.54,0000.13
2024-03-14 06:08:00,SystemResetWarning,0824.4,5.02,000.00,018.7,017.5,000.0,027.5,020.3,27.2,0000.0,0000.21,0000.45,0000.12
2024-03-14 06:09:00,SystemResetWarning,0824.4,5.01,000.00,018.6,017.4,000.0,027.5,020.3,27.7,0000.0,0000.20,0000.42,0000.11
2024-03-14 06:10:00,SystemResetWarning,0824.4,4.99,000.00,018.6,017.4,000.0,027.4,020.3,28.0,0000.0,0000.18,0000.39,0000.10
2024-03-14 06:11:00,SystemResetWarning,0824.4,4.99,000.00,018.6,017.4,000.0,027.4,020.2,27.6,0000.0,0000.15,0000.29,0000.10
2024-03-14 06:12:00,SystemResetWarning,0824.4,5.01,000.00,018.5,017.3,000.0,027.4,020.2,27.6,0000.0,0000.13,0000.23,0000.09
2024-03-14 06:13:00,SystemResetWarning,0824.4,5.01,000.00,018.5,017.3,000.0,027.4,020.1,27.6,0000.0,0000.11,0000.18,0000.08
2024-03-14 06:14:00,SystemResetWarning,0824.5,4.99,000.00,018.5,017.3,000.0,027.3,020.1,27.6,0000.0,0000.10,0000.17,0000.07
2024-03-14 06:15:00,SystemResetWarning,0824.5,4.99,000.00,018.5,017.3,000.0,027.3,020.1,27.6,0000.0,0000.09,0000.15,0000.07
2024-03-14 06:16:00,SystemResetWarning,0824.5,5.00,000.00,018.4,017.3,000.0,027.3,020.1,27.7,0000.0,0000.08,0000.14,0000.06
2024-03-14 06:17:00,SystemResetWarning,0824.5,4.99,000.00,018.4,017.3,000.0,027.2,020.1,27.7,0000.0,0000.07,0000.13,0000.06
2024-03-14 06:18:00,SystemResetWarning,0824.5,5.01,000.00,018.4,017.2,000.0,027.2,020.0,27.7,0000.0,0000.07,0000.13,0000.06
2024-03-14 06:19:00,SystemResetWarning,0824.5,5.01,000.00,018.4,017.2,000.0,027.2,020.0,27.7,0000.0,0000.07,0000.11,0000.06
2024-03-14 06:20:00,SystemResetWarning,0824.5,5.00,000.00,018.4,017.2,000.0,027.2,020.0,27.8,0000.0,0000.07,0000.12,0000.06
2024-03-14 06:21:00,SystemResetWarning,0824.5,4.99,000.00,018.3,017.1,000.0,027.2,020.0,27.8,0000.0,0000.07,0000.12,0000.06
2024-03-14 06:22:00,SystemResetWarning,0824.6,4.99,000.00,018.3,017.1,000.0,027.2,020.0,27.8,0000.0,0000.07,0000.12,0000.05
2024-03-14 06:23:00,SystemResetWarning,0824.6,5.01,000.00,018.3,017.1,000.0,027.2,020.0,27.8,0000.0,0000.07,0000.12,0000.05
2024-03-14 06:24:00,SystemResetWarning,0824.6,5.01,000.00,018.3,017.1,000.0,027.2,020.0,27.8,0000.0,0000.07,0000.11,0000.05
2024-03-14 06:25:00,SystemResetWarning,0824.6,5.00,000.00,018.3,017.1,000.0,027.1,020.0,27.9,0000.0,0000.06,0000.10,0000.05
2024-03-14 06:26:00,SystemResetWarning,0824.6,5.00,000.00,018.3,017.1,000.0,027.1,020.0,27.9,0000.0,0000.07,0000.11,0000.05
2024-03-14 06:27:00,SystemResetWarning,0824.6,5.00,000.00,018.3,017.1,000.0,027.1,020.0,27.9,0000.0,0000.07,0000.12,0000.05
2024-03-14 06:28:00,SystemResetWarning,0824.6,4.99,000.00,018.3,017.1,000.0,027.1,020.0,27.9,0000.0,0000.07,0000.12,0000.05
2024-03-14 06:29:00,SystemResetWarning,0824.6,5.00,000.00,018.2,017.1,000.0,027.1,020.0,27.9,0000.0,0000.07,0000.12,0000.05
2024-03-14 06:30:00,SystemResetWarning,0824.6,4.99,000.00,018.3,017.0,000.0,027.1,020.0,27.9,0000.0,0000.06,0000.11,0000.05
2024-03-14 06:31:00,SystemResetWarning,0824.6,5.00,000.00,018.2,017.0,000.0,027.1,020.0,27.9,0000.0,0000.06,0000.09,0000.05
2024-03-14 06:32:00,SystemResetWarning,0824.6,5.00,000.00,018.2,017.0,000.0,027.1,020.0,27.9,0000.0,0000.05,0000.08,0000.05
2024-03-14 06:33:00,SystemResetWarning,0824.6,5.00,000.00,018.2,017.0,000.0,027.1,020.0,27.9,0000.0,0000.05,0000.08,0000.04
2024-03-14 06:34:00,SystemResetWarning,0824.6,5.00,000.00,018.2,016.9,000.0,027.1,020.0,27.9,0000.0,0000.05,0000.08,0000.04
2024-03-14 06:35:00,SystemResetWarning,0824.6,5.00,000.00,018.2,016.9,000.0,027.1,020.0,28.0,0000.0,0000.05,0000.09,0000.04
2024-03-14 06:36:00,SystemResetWarning,0824.6,5.00,000.00,018.2,016.9,000.0,027.1,020.0,28.0,0000.0,0000.06,0000.09,0000.04
2024-03-14 06:37:00,SystemResetWarning,0824.7,5.00,000.00,018.2,017.0,000.0,027.1,020.0,28.0,0000.0,0000.05,0000.09,0000.04
2024-03-14 06:38:00,SystemResetWarning,0824.6,5.00,000.00,018.2,017.0,000.0,027.1,020.0,28.4,0000.0,0000.05,0000.08,0000.04
2024-03-14 06:39:00,SystemResetWarning,0824.7,5.01,000.00,018.2,017.0,000.0,027.1,020.0,28.5,0000.0,0000.05,0000.07,0000.04
2024-03-14 06:40:00,SystemResetWarning,0824.6,5.01,000.00,018.2,017.0,000.0,027.1,020.0,28.2,0000.0,0000.05,0000.08,0000.04
2024-03-14 06:41:00,SystemResetWarning,0824.6,5.01,000.00,018.2,017.0,000.0,027.1,020.0,28.1,0000.0,0000.05,0000.08,0000.04
2024-03-14 06:42:00,SystemResetWarning,0824.6,5.00,000.00,018.2,017.0,000.0,027.1,020.0,28.1,0000.0,0000.05,0000.07,0000.04
2024-03-14 06:43:00,SystemResetWarning,0824.6,4.99,000.00,018.2,017.0,000.0,027.1,020.0,28.1,0000.0,0000.04,0000.06,0000.03
2024-03-14 06:44:00,SystemResetWarning,0824.7,5.00,000.00,018.2,017.0,000.0,027.1,020.0,28.1,0000.0,0000.04,0000.06,0000.03
2024-03-14 06:45:00,SystemResetWarning,0824.7,5.00,000.00,018.2,017.0,000.0,027.0,020.0,28.2,0000.0,0000.04,0000.06,0000.03
2024-03-14 06:46:00,SystemResetWarning,0824.6,4.99,000.00,018.2,016.9,000.0,027.0,020.0,28.1,0000.0,0000.04,0000.06,0000.03
2024-03-14 06:47:00,SystemResetWarning,0824.6,4.99,000.00,018.2,017.0,000.0,027.0,020.0,28.1,0000.0,0000.05,0000.09,0000.03
2024-03-14 06:48:00,SystemResetWarning,0824.6,5.00,000.00,018.2,017.0,000.0,027.0,020.0,28.1,0000.0,0000.05,0000.10,0000.03
2024-03-14 06:49:00,SystemResetWarning,0824.6,5.00,000.00,018.2,017.0,000.0,027.0,020.0,28.1,0000.0,0000.05,0000.10,0000.03
2024-03-14 06:50:00,SystemResetWarning,0824.7,5.00,000.00,018.2,017.0,000.0,027.1,020.0,28.1,0000.0,0000.05,0000.10,0000.03
2024-03-14 06:51:00,SystemResetWarning,0824.7,5.01,000.00,018.2,017.0,000.0,027.0,020.0,28.2,0000.0,0000.05,0000.09,0000.03
2024-03-14 06:52:00,SystemResetWarning,0824.7,5.01,000.00,018.2,016.9,000.0,027.0,020.0,28.2,0000.0,0000.04,0000.09,0000.03
2024-03-14 06:53:00,SystemResetWarning,0824.7,5.00,000.00,018.2,016.9,000.0,027.0,020.0,28.2,0000.0,0000.05,0000.09,0000.03
2024-03-14 06:54:00,SystemResetWarning,0824.7,5.00,000.00,018.2,016.9,000.0,027.1,020.0,28.2,0000.0,0000.04,0000.09,0000.03
2024-03-14 06:55:00,SystemResetWarning,0824.7,5.00,000.00,018.2,016.8,000.0,027.1,020.0,28.2,0000.0,0000.04,0000.09,0000.02
2024-03-14 06:56:00,SystemResetWarning,0824.7,4.99,000.00,018.2,016.8,000.0,027.0,020.0,28.2,0000.0,0000.04,0000.09,0000.02
2024-03-14 06:57:00,SystemResetWarning,0824.7,5.00,000.00,018.2,016.8,000.0,027.0,020.0,28.1,0000.0,0000.04,0000.08,0000.02
2024-03-14 06:58:00,SystemResetWarning,0824.7,5.01,000.00,018.2,016.9,000.0,027.0,020.0,28.2,0000.0,0000.03,0000.05,0000.02
2024-03-14 06:59:00,SystemResetWarning,0824.7,5.00,000.00,018.2,016.8,000.0,027.0,020.0,28.2,0000.0,0000.02,0000.03,0000.02
